TimeMDT,TemperatureF,Dew PointF,Humidity,Sea Level PressureIn,VisibilityMPH,Wind Direction,Wind SpeedMPH,Gust SpeedMPH,PrecipitationIn,Events,Conditions,WindDirDegrees,DateUTC
12:15 AM,84.6,41.4,22,30.06,10.0,ESE,11.5,17.3,N/A,,Clear,120,2013-06-13 06:15:00
12:35 AM,83.5,42.8,24,30.06,10.0,ESE,11.5,17.3,N/A,,Clear,120,2013-06-13 06:35:00
12:55 AM,82.4,43.9,26,30.06,10.0,SE,9.2,-,N/A,,Clear,130,2013-06-13 06:55:00
1:15 AM,81.9,44.4,27,30.05,10.0,SE,9.2,-,N/A,,Clear,130,2013-06-13 07:15:00
1:35 AM,81.1,45.5,28,30.05,10.0,SE,12.7,17.3,N/A,,Clear,130,2013-06-13 07:35:00
1:55 AM,80.2,48.4,33,30.05,10.0,ESE,9.2,18.4,N/A,,Clear,120,2013-06-13 07:55:00
2:15 AM,79.3,48.4,34,30.06,10.0,ESE,8.1,-,N/A,,Clear,110,2013-06-13 08:15:00
2:35 AM,78.3,50.0,37,30.06,10.0,SSE,8.1,-,N/A,,Clear,150,2013-06-13 08:35:00
2:55 AM,78.3,51.8,40,30.07,10.0,SE,11.5,16.1,N/A,,Clear,140,2013-06-13 08:55:00
3:15 AM,77.9,53.8,43,30.06,10.0,SE,15.0,-,N/A,,Clear,140,2013-06-13 09:15:00
3:35 AM,76.8,54.0,45,30.05,10.0,SE,10.4,17.3,N/A,,Clear,140,2013-06-13 09:35:00
3:55 AM,76.1,54.9,48,30.06,10.0,SSE,11.5,-,N/A,,Clear,150,2013-06-13 09:55:00
4:15 AM,75.7,54.9,48,30.07,10.0,SSE,6.9,18.4,N/A,,Clear,150,2013-06-13 10:15:00
4:35 AM,75.2,55.4,50,30.07,10.0,SSE,6.9,-,N/A,,Clear,160,2013-06-13 10:35:00
4:55 AM,75.0,55.4,50,30.07,10.0,SSE,5.8,-,N/A,,Clear,160,2013-06-13 10:55:00
5:15 AM,74.7,55.4,51,30.07,10.0,SE,5.8,-,N/A,,Clear,130,2013-06-13 11:15:00
5:35 AM,74.1,55.0,51,30.07,10.0,SSE,5.8,-,N/A,,Clear,150,2013-06-13 11:35:00
5:55 AM,74.7,54.0,48,30.08,10.0,ESE,9.2,-,N/A,,Clear,120,2013-06-13 11:55:00
6:15 AM,74.5,53.1,47,30.08,10.0,SSE,5.8,-,N/A,,Clear,150,2013-06-13 12:15:00
6:35 AM,75.2,52.7,45,30.08,10.0,ESE,6.9,-,N/A,,Clear,120,2013-06-13 12:35:00
6:55 AM,75.4,52.2,44,30.08,10.0,East,5.8,-,N/A,,Clear,90,2013-06-13 12:55:00
7:15 AM,77.0,51.1,40,30.08,10.0,East,5.8,-,N/A,,Clear,90,2013-06-13 13:15:00
7:35 AM,78.4,50.7,38,30.09,10.0,ESE,4.6,-,N/A,,Clear,110,2013-06-13 13:35:00
7:55 AM,79.7,53.8,41,30.09,10.0,ESE,6.9,-,N/A,,Clear,120,2013-06-13 13:55:00
8:15 AM,80.6,55.6,42,30.10,10.0,ESE,15.0,19.6,N/A,,Clear,120,2013-06-13 14:15:00
8:35 AM,81.0,55.8,42,30.11,10.0,SE,11.5,18.4,N/A,,Clear,140,2013-06-13 14:35:00
8:55 AM,82.2,54.9,39,30.11,10.0,SE,15.0,18.4,N/A,,Clear,140,2013-06-13 14:55:00
9:15 AM,83.7,53.6,35,30.11,10.0,SE,12.7,18.4,N/A,,Clear,140,2013-06-13 15:15:00
9:35 AM,84.9,53.8,34,30.10,10.0,SSE,13.8,19.6,N/A,,Clear,150,2013-06-13 15:35:00
9:55 AM,85.8,53.6,33,30.10,10.0,SSE,16.1,19.6,N/A,,Clear,150,2013-06-13 15:55:00
10:15 AM,86.4,53.4,32,30.10,10.0,SE,12.7,18.4,N/A,,Clear,130,2013-06-13 16:15:00
10:35 AM,87.6,52.7,30,30.10,10.0,SE,10.4,-,N/A,,Clear,140,2013-06-13 16:35:00
10:55 AM,88.2,50.7,28,30.10,10.0,SE,8.1,-,N/A,,Clear,130,2013-06-13 16:55:00
11:15 AM,89.4,50.4,26,30.10,10.0,SSE,4.6,16.1,N/A,,Clear,160,2013-06-13 17:15:00
11:35 AM,89.6,49.6,25,30.10,10.0,ESE,6.9,-,N/A,,Clear,120,2013-06-13 17:35:00
11:55 AM,90.9,47.7,23,30.09,10.0,East,9.2,-,N/A,,Clear,90,2013-06-13 17:55:00
12:15 PM,91.2,42.1,18,30.08,10.0,SSE,5.8,-,N/A,,Clear,160,2013-06-13 18:15:00
12:35 PM,93.4,42.4,17,30.08,10.0,East,5.8,-,N/A,,Clear,100,2013-06-13 18:35:00
12:55 PM,94.1,42.4,17,30.07,10.0,NE,5.8,-,N/A,,Clear,50,2013-06-13 18:55:00
1:15 PM,93.2,42.3,17,30.06,10.0,North,3.5,-,N/A,,Clear,350,2013-06-13 19:15:00
1:35 PM,94.5,39.7,15,30.05,10.0,NE,8.1,-,N/A,,Clear,50,2013-06-13 19:35:00
1:55 PM,96.3,38.7,14,30.03,10.0,ESE,4.6,-,N/A,,Clear,110,2013-06-13 19:55:00
2:15 PM,96.6,38.3,13,30.02,10.0,NE,6.9,-,N/A,,Clear,50,2013-06-13 20:15:00
2:35 PM,97.9,38.3,13,30.01,10.0,SE,11.5,-,N/A,,Clear,130,2013-06-13 20:35:00
2:55 PM,96.8,37.9,13,30.00,10.0,East,5.8,16.1,N/A,,Clear,80,2013-06-13 20:55:00
3:15 PM,96.6,37.0,13,29.99,10.0,East,6.9,-,N/A,,Clear,80,2013-06-13 21:15:00
3:35 PM,98.1,37.0,12,29.99,10.0,SE,3.5,-,N/A,,Clear,140,2013-06-13 21:35:00
3:55 PM,97.7,36.5,12,29.98,10.0,East,5.8,-,N/A,,Clear,100,2013-06-13 21:55:00
4:15 PM,97.3,37.2,12,29.97,10.0,ESE,5.8,-,N/A,,Clear,110,2013-06-13 22:15:00
4:35 PM,97.2,37.4,12,29.96,10.0,Calm,Calm,-,N/A,,Clear,0,2013-06-13 22:35:00
4:55 PM,98.4,37.4,12,29.96,10.0,SE,13.8,25.3,N/A,,Clear,130,2013-06-13 22:55:00
5:15 PM,98.1,37.6,12,29.96,10.0,ESE,9.2,-,N/A,,Clear,110,2013-06-13 23:15:00
5:35 PM,97.7,37.6,12,29.95,10.0,East,10.4,-,N/A,,Clear,90,2013-06-13 23:35:00
5:55 PM,97.2,39.0,13,29.95,10.0,ESE,13.8,17.3,N/A,,Clear,120,2013-06-13 23:55:00
6:15 PM,96.1,39.4,14,29.95,10.0,ESE,12.7,20.7,N/A,,Clear,120,2013-06-14 00:15:00
6:35 PM,95.2,40.1,15,29.95,10.0,ESE,13.8,20.7,N/A,,Clear,110,2013-06-14 00:35:00
6:55 PM,94.8,42.1,16,29.95,10.0,ESE,13.8,20.7,N/A,,Clear,120,2013-06-14 00:55:00
7:15 PM,92.7,43.0,18,29.95,10.0,ESE,16.1,20.7,N/A,,Clear,120,2013-06-14 01:15:00
7:35 PM,90.7,45.1,21,29.95,10.0,ESE,16.1,24.2,N/A,,Clear,120,2013-06-14 01:35:00
7:55 PM,89.6,45.9,22,29.96,10.0,ESE,16.1,20.7,N/A,,Clear,120,2013-06-14 01:55:00
8:15 PM,88.3,46.2,23,29.97,10.0,ESE,11.5,-,N/A,,Clear,120,2013-06-14 02:15:00
8:35 PM,85.5,53.8,34,29.98,10.0,SSE,16.1,27.6,N/A,,Clear,150,2013-06-14 02:35:00
8:55 PM,83.5,55.4,38,30.00,10.0,South,16.1,23.0,N/A,,Clear,170,2013-06-14 02:55:00
9:15 PM,82.4,56.3,41,30.02,10.0,SSE,13.8,19.6,N/A,,Clear,150,2013-06-14 03:15:00
9:35 PM,81.7,55.9,41,30.02,10.0,SSE,12.7,17.3,N/A,,Clear,150,2013-06-14 03:35:00
9:55 PM,81.0,55.9,42,30.03,10.0,SSE,9.2,-,N/A,,Clear,150,2013-06-14 03:55:00
10:15 PM,80.2,55.4,42,30.04,10.0,SSE,9.2,-,N/A,,Clear,160,2013-06-14 04:15:00
10:35 PM,79.7,54.9,42,30.05,10.0,South,12.7,-,N/A,,Clear,190,2013-06-14 04:35:00
10:55 PM,79.3,53.8,41,30.06,10.0,SSE,13.8,18.4,N/A,,Clear,160,2013-06-14 04:55:00
11:15 PM,78.8,53.1,41,30.06,10.0,South,12.7,-,N/A,,Clear,170,2013-06-14 05:15:00
11:35 PM,78.4,51.3,39,30.07,10.0,SSE,11.5,-,N/A,,Clear,160,2013-06-14 05:35:00
11:55 PM,77.9,50.5,38,30.07,10.0,South,8.1,-,N/A,,Clear,170,2013-06-14 05:55:00